Вернуться в каталог

SL-16 DEB

АктивенLEO
NORAD 22361·DEBRIS·🇷🇺 Russia

Запущен Dec 25, 1992 с Baikonur Cosmodrome

Loading…

Ближайшие Пролёты (ближайшие 24 часа)

TLE

СвежийSource: Space-Track

Эпоха: Sep 14, 2026, 13:15 UTC

1 22361U 92093BA  26257.55242559  .00000153  00000-0  16351-3 0  9994
2 22361  70.7635  96.3613 0183259 176.5842 214.8863 13.81459276695078

Отслеживайте SL-16 DEB в реальном времени с AllMySat

Download on the App Store